Weather History for Huntsville, AL

Change the Weather History Date:

Sunday, December 16, 2012

  Actual Average Record
Temperature  
Mean Temperature 60 °F 44 °F  
Max Temperature 63 °F 53 °F 73 °F (1984)
Min Temperature 56 °F 34 °F 6 °F (1989)
Degree Days  
Heating Degree Days 5 21  
Month to date heating degree days 154 315  
Since 1 July heating degree days 792 842  
Cooling Degree Days 0 0  
Month to date cooling degree days 1 0  
Year to date cooling degree days 2095 1949  
Growing Degree Days 9 (Base 50)    
Moisture  
Dew Point 56 °F    
Average Humidity 86    
Maximum Humidity 93    
Minimum Humidity 78    
Precipitation  
Precipitation 2.46 in 0.19 in 2.46 in (2012)
Month to date precipitation 3.81 3.15  
Year to date precipitation 49.27 51.72  
Snow  
Snow 0.00 in - - ()
Month to date snowfall 0.0  
Since 1 July snowfall 0.0  
Snow Depth 0.00 in    
Sea Level Pressure  
Sea Level Pressure 29.88 in    
Wind  
Wind Speed 10 mph (SSE)    
Max Wind Speed 25 mph    
Max Gust Speed 32 mph    
Visibility 7 miles    
Events Rain , Thunderstorm    
T = Trace of Precipitation, MM = Missing Value Source: NWS Daily Summary

Daily Weather History Graph

Daily Weather History Graph

Search for Another Location

Airport:

Trip Planner

Search our weather history database for the weather conditions in past years. The results will help you decide how hot, cold, wet, or windy it might be!

Date:

Astronomy

Dec. 16, 2012 Rise Set
Actual Time 6:47 AM CST 4:38 PM CST
Civil Twilight 6:19 AM CST 5:06 PM CST
Nautical Twilight 5:48 AM CST 5:37 PM CST
Astronomical Twilight 5:17 AM CST 6:08 PM CST
Moon 9:27 AM CST (12/16) 8:43 PM CST (12/16)
Length of Visible Light 10h 46m
Length of Day
9h 50m
Waxing Crescent, 16% of the Moon is Illuminated
Dec 16
Waxing Crescent
Dec 19
First Quarter
Dec 28
Full
Jan 4
Last Quarter
Jan 11
New

Hourly Weather History & Observations

Time (CST) Temp. Dew Point Humidity Pressure Visibility Wind Dir Wind Speed Gust Speed Precip Events Conditions
12:53 AM 61.0 °F 55.0 °F 81% 29.91 in 10.0 mi South 12.7 mph - N/A   Overcast
1:53 AM 62.1 °F 55.9 °F 80% 29.91 in 10.0 mi South 15.0 mph 20.7 mph N/A   Overcast
2:44 AM 62.6 °F 55.4 °F 77% 29.91 in 10.0 mi South 12.7 mph - N/A   Overcast
2:53 AM 62.1 °F 55.9 °F 80% 29.90 in 10.0 mi SSW 13.8 mph 20.7 mph N/A   Overcast
3:53 AM 62.1 °F 57.0 °F 84% 29.88 in 10.0 mi SSW 12.7 mph - N/A   Overcast
4:53 AM 62.1 °F 57.0 °F 84% 29.88 in 8.0 mi South 12.7 mph 20.7 mph 0.00 in Rain , Thunderstorm Light Thunderstorms and Rain
5:24 AM 62.6 °F 57.2 °F 82% 29.92 in 0.8 mi WNW 10.4 mph - 0.02 in Rain , Thunderstorm Heavy Thunderstorms and Rain
5:53 AM 60.1 °F 57.9 °F 93% 29.91 in 0.8 mi SSW 5.8 mph - 0.92 in Rain , Thunderstorm Heavy Thunderstorms and Rain
6:53 AM 60.1 °F 57.9 °F 93% 29.92 in 0.8 mi South 8.1 mph - 0.61 in Rain , Thunderstorm Heavy Thunderstorms and Rain
7:00 AM 60.8 °F 57.2 °F 88% 29.92 in 2.0 mi SSE 6.9 mph - 0.03 in Rain , Thunderstorm Heavy Thunderstorms and Rain
7:18 AM 60.8 °F 57.2 °F 88% 29.93 in 3.0 mi SSE 6.9 mph - 0.11 in Rain , Thunderstorm Thunderstorms and Rain
7:36 AM 60.8 °F 57.2 °F 88% 29.93 in 3.0 mi East 3.5 mph - 0.15 in Rain Rain
7:48 AM 60.8 °F 57.2 °F 88% 29.94 in 2.0 mi South 4.6 mph - 0.20 in Rain Heavy Rain
7:53 AM 60.1 °F 57.9 °F 93% 29.93 in 2.0 mi SSE 6.9 mph - 0.22 in Rain Heavy Rain
8:53 AM 60.1 °F 57.9 °F 93% 29.94 in 2.0 mi SE 6.9 mph - 0.12 in Rain Light Rain
9:31 AM 60.8 °F 59.0 °F 94% 29.93 in 8.0 mi SSE 10.4 mph - 0.04 in Rain Light Rain
9:53 AM 62.1 °F 59.0 °F 90% 29.89 in 10.0 mi SE 11.5 mph - 0.04 in Rain Light Rain
10:53 AM 62.1 °F 57.0 °F 84% 29.86 in 10.0 mi SSE 16.1 mph - 0.02 in Rain Light Rain
11:53 AM 61.0 °F 57.0 °F 87% 29.87 in 9.0 mi SSE 6.9 mph - 0.02 in Rain Light Rain
12:53 PM 61.0 °F 57.0 °F 87% 29.85 in 10.0 mi SSE 9.2 mph - 0.06 in Rain Light Rain
1:35 PM 60.8 °F 57.2 °F 88% 29.89 in 5.0 mi South 6.9 mph - 0.04 in Rain Rain
1:53 PM 60.1 °F 57.9 °F 93% 29.88 in 4.0 mi South 9.2 mph - 0.07 in Rain Rain
2:00 PM 60.8 °F 57.2 °F 88% 29.88 in 4.0 mi South 11.5 mph - 0.02 in Rain Rain
2:19 PM 60.8 °F 57.2 °F 88% 29.87 in 7.0 mi SSE 13.8 mph - 0.05 in Rain Light Rain
2:53 PM 60.1 °F 57.0 °F 90% 29.86 in 8.0 mi South 12.7 mph - 0.09 in Rain Light Rain
3:53 PM 60.1 °F 57.0 °F 90% 29.88 in 6.0 mi South 6.9 mph - 0.06 in Rain Rain
4:53 PM 59.0 °F 55.9 °F 90% 29.91 in 6.0 mi SSW 6.9 mph - 0.09 in Rain Rain
5:53 PM 57.9 °F 55.0 °F 90% 29.90 in 8.0 mi SE 6.9 mph - 0.08 in Rain Light Rain
6:53 PM 57.9 °F 55.0 °F 90% 29.80 in 10.0 mi SSE 21.9 mph - 0.06 in Rain Light Rain
7:53 PM 57.9 °F 53.1 °F 84% 29.76 in 10.0 mi SE 15.0 mph - 0.00 in   Overcast
8:53 PM 57.0 °F 53.1 °F 87% 29.80 in 10.0 mi SE 6.9 mph - N/A   Overcast
9:53 PM 57.0 °F 53.1 °F 87% 29.81 in 10.0 mi ESE 3.5 mph - N/A   Overcast
10:38 PM 55.4 °F 51.8 °F 88% 29.84 in 10.0 mi SW 3.5 mph - N/A   Overcast
10:53 PM 57.0 °F 53.1 °F 87% 29.83 in 10.0 mi South 5.8 mph - N/A   Overcast
11:20 PM 57.2 °F 53.6 °F 88% 29.83 in 10.0 mi South 5.8 mph - N/A   Overcast
11:53 PM 57.0 °F 53.1 °F 87% 29.82 in 10.0 mi SSE 10.4 mph - N/A   Overcast